"datetime","temp","dp","rain_mm","uv","mb"
"2015-08-03 00:00:00",13.7,10.7,0.0,0.0,1010.5
"2015-08-03 00:01:00",13.7,10.9,0.0,0.0,1010.5
"2015-08-03 00:02:00",13.7,10.8,0.0,0.0,1010.5
"2015-08-03 00:03:00",13.6,10.8,0.0,0.0,1010.4
"2015-08-03 00:04:00",13.6,10.7,0.0,0.0,1010.4
"2015-08-03 00:05:00",13.6,10.7,0.0,0.0,1010.4
"2015-08-03 00:06:00",13.5,10.7,0.0,0.0,1010.4
"2015-08-03 00:07:00",13.5,10.7,0.0,0.0,1010.4
"2015-08-03 00:08:00",13.5,10.8,0.0,0.0,1010.3
"2015-08-03 00:09:00",13.4,10.8,0.0,0.0,1010.3
"2015-08-03 00:10:00",13.4,10.7,0.0,0.0,1010.3
"2015-08-03 00:11:00",13.3,10.7,0.0,0.0,1010.3
"2015-08-03 00:12:00",13.3,10.7,0.0,0.0,1010.3
"2015-08-03 00:13:00",13.3,10.7,0.0,0.0,1010.3
"2015-08-03 00:14:00",13.3,10.6,0.0,0.0,1010.3
"2015-08-03 00:15:00",13.2,10.6,0.0,0.0,1010.3
"2015-08-03 00:16:00",13.2,10.7,0.0,0.0,1010.2
"2015-08-03 00:17:00",13.2,10.7,0.0,0.0,1010.2
"2015-08-03 00:18:00",13.2,10.7,0.0,0.0,1010.2
"2015-08-03 00:19:00",13.2,10.7,0.0,0.0,1010.2
"2015-08-03 00:20:00",13.1,10.7,0.0,0.0,1010.2
"2015-08-03 00:21:00",13.1,10.6,0.0,0.0,1010.1
"2015-08-03 00:22:00",13.1,10.6,0.0,0.0,1010.2
"2015-08-03 00:23:00",13.0,10.5,0.0,0.0,1010.2
"2015-08-03 00:24:00",13.0,10.5,0.0,0.0,1010.1
"2015-08-03 00:25:00",12.9,10.5,0.0,0.0,1010.1
"2015-08-03 00:26:00",12.9,10.7,0.0,0.0,1010.1
"2015-08-03 00:27:00",12.9,10.6,0.0,0.0,1010.1
"2015-08-03 00:28:00",12.9,10.6,0.0,0.0,1010.1
"2015-08-03 00:29:00",12.9,10.4,0.0,0.0,1010.1
"2015-08-03 00:30:00",12.9,10.6,0.0,0.0,1010.1
"2015-08-03 00:31:00",12.9,10.6,0.0,0.0,1010.0
"2015-08-03 00:32:00",12.9,10.6,0.0,0.0,1010.0
"2015-08-03 00:33:00",12.9,10.6,0.0,0.0,1010.0
"2015-08-03 00:34:00",12.9,10.6,0.0,0.0,1010.0
"2015-08-03 00:35:00",12.9,10.6,0.0,0.0,1010.0
"2015-08-03 00:36:00",12.9,10.6,0.0,0.0,1010.0
"2015-08-03 00:37:00",12.8,10.5,0.0,0.0,1010.0
"2015-08-03 00:38:00",12.8,10.5,0.0,0.0,1010.0
"2015-08-03 00:39:00",12.8,10.5,0.0,0.0,1010.0
"2015-08-03 00:40:00",12.8,10.5,0.0,0.0,1009.9
"2015-08-03 00:41:00",12.8,10.5,0.0,0.0,1010.0
"2015-08-03 00:42:00",12.8,10.5,0.0,0.0,1009.9
"2015-08-03 00:43:00",12.8,10.5,0.0,0.0,1009.9
"2015-08-03 00:44:00",12.8,10.5,0.0,0.0,1009.9
"2015-08-03 00:45:00",12.7,10.5,0.0,0.0,1009.9
"2015-08-03 00:46:00",12.7,10.4,0.0,0.0,1009.9
"2015-08-03 00:47:00",12.7,10.4,0.0,0.0,1009.9
"2015-08-03 00:48:00",12.7,10.4,0.0,0.0,1009.8
"2015-08-03 00:49:00",12.7,10.4,0.0,0.0,1009.8
"2015-08-03 00:50:00",12.8,10.5,0.0,0.0,1009.8
"2015-08-03 00:51:00",12.8,10.5,0.0,0.0,1009.8
"2015-08-03 00:52:00",12.8,10.5,0.0,0.0,1009.7
"2015-08-03 00:53:00",12.8,10.3,0.0,0.0,1009.7
"2015-08-03 00:54:00",12.8,10.5,0.0,0.0,1009.7
"2015-08-03 00:55:00",12.8,10.5,0.0,0.0,1009.7
"2015-08-03 00:56:00",12.8,10.3,0.0,0.0,1009.7
"2015-08-03 00:57:00",12.8,10.5,0.0,0.0,1009.6
"2015-08-03 00:58:00",12.8,10.5,0.0,0.0,1009.6
"2015-08-03 00:59:00",12.9,10.6,0.0,0.0,1009.6
"2015-08-03 01:00:00",12.9,10.6,0.0,0.0,1009.6
"2015-08-03 01:01:00",13.1,10.8,0.0,0.0,1009.6
"2015-08-03 01:02:00",13.2,10.8,0.0,0.0,1009.6
"2015-08-03 01:03:00",13.3,10.6,0.0,0.0,1009.6
"2015-08-03 01:04:00",13.3,10.7,0.0,0.0,1009.5
"2015-08-03 01:05:00",13.4,10.8,0.0,0.0,1009.5
"2015-08-03 01:06:00",13.4,10.8,0.0,0.0,1009.5
"2015-08-03 01:07:00",13.4,10.8,0.0,0.0,1009.5
"2015-08-03 01:08:00",13.5,10.8,0.0,0.0,1009.5
"2015-08-03 01:09:00",13.5,10.9,0.0,0.0,1009.4
"2015-08-03 01:10:00",13.6,10.8,0.0,0.0,1009.4
"2015-08-03 01:11:00",13.8,10.9,0.0,0.0,1009.4
"2015-08-03 01:12:00",13.9,10.8,0.0,0.0,1009.4
"2015-08-03 01:13:00",13.9,10.9,0.0,0.0,1009.3
"2015-08-03 01:14:00",14.0,11.0,0.0,0.0,1009.3
"2015-08-03 01:15:00",14.0,11.0,0.0,0.0,1009.3
"2015-08-03 01:16:00",14.0,10.9,0.0,0.0,1009.4
"2015-08-03 01:17:00",13.8,10.8,0.0,0.0,1009.3
"2015-08-03 01:18:00",13.7,10.7,0.0,0.0,1009.4
"2015-08-03 01:19:00",13.6,10.8,0.0,0.0,1009.4
"2015-08-03 01:20:00",13.5,10.7,0.0,0.0,1009.4
"2015-08-03 01:21:00",13.5,10.6,0.0,0.0,1009.4
"2015-08-03 01:22:00",13.4,10.8,0.0,0.0,1009.4
"2015-08-03 01:23:00",13.4,10.7,0.0,0.0,1009.4
"2015-08-03 01:24:00",13.3,10.7,0.0,0.0,1009.4
"2015-08-03 01:25:00",13.3,10.8,0.0,0.0,1009.4
"2015-08-03 01:26:00",13.3,10.8,0.0,0.0,1009.4
"2015-08-03 01:27:00",13.2,10.8,0.0,0.0,1009.4
"2015-08-03 01:28:00",13.2,10.7,0.0,0.0,1009.5
"2015-08-03 01:29:00",13.2,10.7,0.0,0.0,1009.5
"2015-08-03 01:30:00",13.1,10.6,0.0,0.0,1009.5
"2015-08-03 01:31:00",13.1,10.8,0.0,0.0,1009.6
"2015-08-03 01:32:00",13.0,10.7,0.0,0.0,1009.6
"2015-08-03 01:33:00",13.0,10.7,0.0,0.0,1009.7
"2015-08-03 01:34:00",12.9,10.6,0.0,0.0,1009.7
"2015-08-03 01:35:00",12.9,10.6,0.0,0.0,1009.7
"2015-08-03 01:36:00",12.8,10.5,0.0,0.0,1009.7
"2015-08-03 01:37:00",12.8,10.7,0.0,0.0,1009.7
"2015-08-03 01:38:00",12.8,10.5,0.0,0.0,1009.7
"2015-08-03 01:39:00",12.8,10.5,0.0,0.0,1009.7
"2015-08-03 01:40:00",12.7,10.4,0.0,0.0,1009.6
"2015-08-03 01:41:00",12.7,10.6,0.0,0.0,1009.6
"2015-08-03 01:42:00",12.7,10.6,0.0,0.0,1009.6
"2015-08-03 01:43:00",12.7,10.6,0.0,0.0,1009.6
"2015-08-03 01:44:00",12.7,10.6,0.0,0.0,1009.6
"2015-08-03 01:45:00",12.7,10.6,0.0,0.0,1009.5
"2015-08-03 01:46:00",12.7,10.6,0.0,0.0,1009.5
"2015-08-03 01:47:00",12.7,10.6,0.0,0.0,1009.5
"2015-08-03 01:48:00",12.6,10.5,0.0,0.0,1009.5
"2015-08-03 01:49:00",12.6,10.5,0.0,0.0,1009.5
"2015-08-03 01:50:00",12.6,10.4,0.0,0.0,1009.5
"2015-08-03 01:51:00",12.6,10.4,0.0,0.0,1009.4
"2015-08-03 01:52:00",12.6,10.4,0.0,0.0,1009.4
"2015-08-03 01:53:00",12.5,10.4,0.0,0.0,1009.4
"2015-08-03 01:54:00",12.5,10.4,0.0,0.0,1009.4
"2015-08-03 01:55:00",12.4,10.3,0.0,0.0,1009.4
"2015-08-03 01:56:00",12.4,10.3,0.0,0.0,1009.3
"2015-08-03 01:57:00",12.3,10.2,0.0,0.0,1009.3
"2015-08-03 01:58:00",12.3,10.4,0.0,0.0,1009.3
"2015-08-03 01:59:00",12.3,10.3,0.0,0.0,1009.3
"2015-08-03 02:00:00",12.2,10.3,0.0,0.0,1009.3
"2015-08-03 02:01:00",12.2,10.3,0.0,0.0,1009.3
"2015-08-03 02:02:00",12.2,10.2,0.0,0.0,1009.3
"2015-08-03 02:03:00",12.1,10.2,0.0,0.0,1009.3
"2015-08-03 02:04:00",12.1,10.2,0.0,0.0,1009.3
"2015-08-03 02:05:00",12.1,10.2,0.0,0.0,1009.3
"2015-08-03 02:06:00",12.1,10.4,0.0,0.0,1009.2
"2015-08-03 02:07:00",12.1,10.4,0.0,0.0,1009.3
"2015-08-03 02:08:00",12.1,10.4,0.0,0.0,1009.2
"2015-08-03 02:09:00",12.1,10.4,0.0,0.0,1009.2
"2015-08-03 02:10:00",12.1,10.1,0.0,0.0,1009.2
"2015-08-03 02:11:00",12.1,10.3,0.0,0.0,1009.2
"2015-08-03 02:12:00",12.0,10.2,0.0,0.0,1009.2
"2015-08-03 02:13:00",12.0,10.2,0.0,0.0,1009.2
"2015-08-03 02:14:00",11.9,10.2,0.0,0.0,1009.2
"2015-08-03 02:15:00",11.9,10.1,0.0,0.0,1009.2
"2015-08-03 02:16:00",11.9,10.1,0.0,0.0,1009.1
"2015-08-03 02:17:00",11.8,10.1,0.0,0.0,1009.2
"2015-08-03 02:18:00",11.8,10.0,0.0,0.0,1009.2
"2015-08-03 02:19:00",11.8,10.2,0.0,0.0,1009.1
"2015-08-03 02:20:00",11.8,10.2,0.0,0.0,1009.1
"2015-08-03 02:21:00",11.7,10.1,0.0,0.0,1009.1
"2015-08-03 02:22:00",11.7,10.2,0.0,0.0,1009.1
"2015-08-03 02:23:00",11.8,10.2,0.0,0.0,1009.1
"2015-08-03 02:24:00",11.8,10.2,0.0,0.0,1009.1
"2015-08-03 02:25:00",11.7,10.1,0.0,0.0,1009.0
"2015-08-03 02:26:00",11.7,10.1,0.0,0.0,1009.0
"2015-08-03 02:27:00",11.7,10.1,0.0,0.0,1009.0
"2015-08-03 02:28:00",11.6,10.0,0.0,0.0,1009.0
"2015-08-03 02:29:00",11.6,10.0,0.0,0.0,1009.0
"2015-08-03 02:30:00",11.6,10.0,0.0,0.0,1009.0
"2015-08-03 02:31:00",11.6,10.0,0.0,0.0,1009.0
"2015-08-03 02:32:00",11.6,10.0,0.0,0.0,1009.0
"2015-08-03 02:33:00",11.6,10.0,0.0,0.0,1009.0
"2015-08-03 02:34:00",11.5,9.9,0.0,0.0,1008.9
"2015-08-03 02:35:00",11.5,9.9,0.0,0.0,1008.9
"2015-08-03 02:36:00",11.5,9.9,0.0,0.0,1008.9
"2015-08-03 02:37:00",11.4,9.9,0.0,0.0,1008.9
"2015-08-03 02:38:00",11.4,10.0,0.0,0.0,1008.9
"2015-08-03 02:39:00",11.2,9.8,0.0,0.0,1008.9
"2015-08-03 02:40:00",11.2,9.8,0.0,0.0,1008.9
"2015-08-03 02:41:00",11.3,9.9,0.0,0.0,1008.9
"2015-08-03 02:42:00",11.3,9.9,0.0,0.0,1008.9
"2015-08-03 02:43:00",11.3,9.9,0.0,0.0,1008.9
"2015-08-03 02:44:00",11.3,9.9,0.0,0.0,1008.9
"2015-08-03 02:45:00",11.3,9.9,0.0,0.0,1008.8
"2015-08-03 02:46:00",11.3,9.8,0.0,0.0,1008.8
"2015-08-03 02:47:00",11.2,9.8,0.0,0.0,1008.8
"2015-08-03 02:48:00",11.2,9.8,0.0,0.0,1008.8
"2015-08-03 02:49:00",11.2,9.8,0.0,0.0,1008.8
"2015-08-03 02:50:00",11.2,9.8,0.0,0.0,1008.7
"2015-08-03 02:51:00",11.2,9.8,0.0,0.0,1008.8
"2015-08-03 02:52:00",11.2,9.8,0.0,0.0,1008.7
"2015-08-03 02:53:00",11.2,9.8,0.0,0.0,1008.7
"2015-08-03 02:54:00",11.1,9.7,0.0,0.0,1008.7
"2015-08-03 02:55:00",11.1,9.7,0.0,0.0,1008.7
"2015-08-03 02:56:00",11.1,9.7,0.0,0.0,1008.7
"2015-08-03 02:57:00",11.1,9.6,0.0,0.0,1008.7
"2015-08-03 02:58:00",11.0,9.6,0.0,0.0,1008.7
"2015-08-03 02:59:00",11.0,9.7,0.0,0.0,1008.7
"2015-08-03 03:00:00",11.0,9.7,0.0,0.0,1008.7
"2015-08-03 03:01:00",11.0,9.8,0.0,0.0,1008.6
"2015-08-03 03:02:00",11.0,9.7,0.0,0.0,1008.6
"2015-08-03 03:03:00",11.0,9.7,0.0,0.0,1008.6
"2015-08-03 03:04:00",11.0,9.7,0.0,0.0,1008.6
"2015-08-03 03:05:00",11.0,9.7,0.0,0.0,1008.6
"2015-08-03 03:06:00",11.0,9.7,0.0,0.0,1008.6
"2015-08-03 03:07:00",11.0,9.7,0.0,0.0,1008.6
"2015-08-03 03:08:00",10.9,9.7,0.0,0.0,1008.6
"2015-08-03 03:09:00",10.9,9.7,0.0,0.0,1008.6
"2015-08-03 03:10:00",10.8,9.6,0.0,0.0,1008.7
"2015-08-03 03:11:00",10.8,9.6,0.0,0.0,1008.7
"2015-08-03 03:12:00",10.8,9.6,0.0,0.0,1008.7
"2015-08-03 03:13:00",10.8,9.5,0.0,0.0,1008.7
"2015-08-03 03:14:00",10.8,9.5,0.0,0.0,1008.7
"2015-08-03 03:15:00",10.8,9.5,0.0,0.0,1008.7
"2015-08-03 03:16:00",10.8,9.5,0.0,0.0,1008.7
"2015-08-03 03:17:00",10.7,9.5,0.0,0.0,1008.7
"2015-08-03 03:18:00",10.7,9.5,0.0,0.0,1008.7
"2015-08-03 03:19:00",10.7,9.5,0.0,0.0,1008.7
"2015-08-03 03:20:00",10.7,9.5,0.0,0.0,1008.7
"2015-08-03 03:21:00",10.7,9.6,0.0,0.0,1008.7
"2015-08-03 03:22:00",10.7,9.6,0.0,0.0,1008.8
"2015-08-03 03:23:00",10.7,9.7,0.0,0.0,1008.8
"2015-08-03 03:24:00",10.7,9.7,0.0,0.0,1008.8
"2015-08-03 03:25:00",10.7,9.6,0.0,0.0,1008.8
"2015-08-03 03:26:00",10.7,9.5,0.0,0.0,1008.8
"2015-08-03 03:27:00",10.7,9.4,0.0,0.0,1008.8
"2015-08-03 03:28:00",10.7,9.6,0.0,0.0,1008.8
"2015-08-03 03:29:00",10.6,9.5,0.0,0.0,1008.8
"2015-08-03 03:30:00",10.6,9.5,0.0,0.0,1008.8
"2015-08-03 03:31:00",10.6,9.5,0.0,0.0,1008.8
"2015-08-03 03:32:00",10.6,9.5,0.0,0.0,1008.8
"2015-08-03 03:33:00",10.6,9.5,0.0,0.0,1008.8
"2015-08-03 03:34:00",10.6,9.5,0.0,0.0,1008.8
"2015-08-03 03:35:00",10.6,9.5,0.0,0.0,1008.8
"2015-08-03 03:36:00",10.6,9.5,0.0,0.0,1008.8
"2015-08-03 03:37:00",10.6,9.6,0.0,0.0,1008.8
"2015-08-03 03:38:00",10.7,9.6,0.0,0.0,1008.8
"2015-08-03 03:39:00",10.7,9.6,0.0,0.0,1008.8
"2015-08-03 03:40:00",10.7,9.6,0.0,0.0,1008.9
"2015-08-03 03:41:00",10.6,9.5,0.0,0.0,1008.9
"2015-08-03 03:42:00",10.6,9.5,0.0,0.0,1008.8
"2015-08-03 03:43:00",10.5,9.5,0.0,0.0,1008.9
"2015-08-03 03:44:00",10.5,9.4,0.0,0.0,1008.9
"2015-08-03 03:45:00",10.5,9.4,0.0,0.0,1008.8
"2015-08-03 03:46:00",10.5,9.4,0.0,0.0,1008.8
"2015-08-03 03:47:00",10.5,9.4,0.0,0.0,1008.8
"2015-08-03 03:48:00",10.5,9.4,0.0,0.0,1008.8
"2015-08-03 03:49:00",10.5,9.4,0.0,0.0,1008.8
"2015-08-03 03:50:00",10.5,9.4,0.0,0.0,1008.8
"2015-08-03 03:51:00",10.5,9.6,0.0,0.0,1008.8
"2015-08-03 03:52:00",10.6,9.6,0.0,0.0,1008.8
"2015-08-03 03:53:00",10.6,9.7,0.0,0.0,1008.8
"2015-08-03 03:54:00",10.7,9.7,0.0,0.0,1008.8
"2015-08-03 03:55:00",10.7,9.7,0.0,0.0,1008.8
"2015-08-03 03:56:00",10.7,9.8,0.0,0.0,1008.8
"2015-08-03 03:57:00",10.7,9.8,0.0,0.0,1008.8
"2015-08-03 03:58:00",10.8,9.8,0.0,0.0,1008.8
"2015-08-03 03:59:00",10.8,9.9,0.0,0.0,1008.8
"2015-08-03 04:00:00",10.8,9.9,0.0,0.0,1008.8
"2015-08-03 04:01:00",10.8,9.9,0.0,0.0,1008.8
"2015-08-03 04:02:00",10.8,9.9,0.0,0.0,1008.8
"2015-08-03 04:03:00",10.9,9.9,0.0,0.0,1008.8
"2015-08-03 04:04:00",10.9,10.0,0.0,0.0,1008.8
"2015-08-03 04:05:00",10.9,10.0,0.0,0.0,1008.8
"2015-08-03 04:06:00",10.9,10.0,0.0,0.0,1008.8
"2015-08-03 04:07:00",10.9,10.0,0.0,0.0,1008.8
"2015-08-03 04:08:00",11.0,10.0,0.0,0.0,1008.8
"2015-08-03 04:09:00",11.0,10.1,0.0,0.0,1008.8
"2015-08-03 04:10:00",11.0,10.1,0.0,0.0,1008.8
"2015-08-03 04:11:00",11.1,10.1,0.0,0.0,1008.9
"2015-08-03 04:12:00",11.1,10.1,0.0,0.0,1008.9
"2015-08-03 04:13:00",11.1,10.2,0.0,0.0,1008.8
"2015-08-03 04:14:00",11.1,10.2,0.0,0.0,1008.9
"2015-08-03 04:15:00",11.2,10.2,0.0,0.0,1008.9
"2015-08-03 04:16:00",11.2,10.2,0.0,0.0,1008.9
"2015-08-03 04:17:00",11.2,10.2,0.0,0.0,1008.9
"2015-08-03 04:18:00",11.2,10.3,0.0,0.0,1008.9
"2015-08-03 04:19:00",11.2,10.3,0.0,0.0,1008.9
"2015-08-03 04:20:00",11.2,10.3,0.0,0.0,1008.9
"2015-08-03 04:21:00",11.2,10.3,0.0,0.0,1008.8
"2015-08-03 04:22:00",11.2,10.3,0.0,0.0,1008.9
"2015-08-03 04:23:00",11.2,10.3,0.0,0.0,1008.8
"2015-08-03 04:24:00",11.2,10.3,0.0,0.0,1008.9
"2015-08-03 04:25:00",11.2,10.3,0.0,0.0,1008.9
"2015-08-03 04:26:00",11.2,10.3,0.0,0.0,1008.9
"2015-08-03 04:27:00",11.2,10.3,0.0,0.0,1008.9
"2015-08-03 04:28:00",11.3,10.3,0.0,0.0,1008.9
"2015-08-03 04:29:00",11.3,10.3,0.0,0.0,1008.9
"2015-08-03 04:30:00",11.3,10.4,0.0,0.0,1008.9
"2015-08-03 04:31:00",11.3,10.4,0.0,0.0,1008.9
"2015-08-03 04:32:00",11.2,10.3,0.0,0.0,1008.9
"2015-08-03 04:33:00",11.2,10.3,0.0,0.0,1008.9
"2015-08-03 04:34:00",11.3,10.4,0.0,0.0,1008.9
"2015-08-03 04:35:00",11.4,10.5,0.0,0.0,1008.9
"2015-08-03 04:36:00",11.2,10.3,0.0,0.0,1008.9
"2015-08-03 04:37:00",11.2,10.3,0.0,0.0,1008.9
"2015-08-03 04:38:00",11.3,10.4,0.0,0.0,1008.9
"2015-08-03 04:39:00",11.2,10.3,0.0,0.0,1008.9
"2015-08-03 04:40:00",11.2,10.3,0.0,0.0,1008.9
"2015-08-03 04:41:00",11.2,10.3,0.0,0.0,1008.9
"2015-08-03 04:42:00",11.3,10.3,0.0,0.0,1008.9
"2015-08-03 04:43:00",11.4,10.5,0.0,0.0,1008.9
"2015-08-03 04:44:00",11.5,10.7,0.0,0.0,1008.9
"2015-08-03 04:45:00",11.5,10.8,0.0,0.0,1008.9
"2015-08-03 04:46:00",11.6,10.8,0.0,0.0,1008.9
"2015-08-03 04:47:00",11.6,10.8,0.0,0.0,1008.8
"2015-08-03 04:48:00",11.6,10.8,0.0,0.0,1008.8
"2015-08-03 04:49:00",11.7,10.7,0.0,0.0,1008.8
"2015-08-03 04:50:00",11.7,10.7,0.0,0.0,1008.8
"2015-08-03 04:51:00",11.7,10.7,0.0,0.0,1008.8
"2015-08-03 04:52:00",11.7,10.9,0.0,0.0,1008.8
"2015-08-03 04:53:00",11.7,10.9,0.0,0.0,1008.8
"2015-08-03 04:54:00",11.7,10.9,0.0,0.0,1008.8
"2015-08-03 04:55:00",11.7,10.9,0.0,0.0,1008.8
"2015-08-03 04:56:00",11.7,10.9,0.0,0.0,1008.8
"2015-08-03 04:57:00",11.7,11.0,0.0,0.0,1008.8
"2015-08-03 04:58:00",11.8,11.0,0.0,0.0,1008.8
"2015-08-03 04:59:00",11.8,11.0,0.0,0.0,1008.8
"2015-08-03 05:00:00",11.8,11.0,0.0,0.0,1008.9
"2015-08-03 05:01:00",11.8,11.0,0.0,0.0,1008.9
"2015-08-03 05:02:00",11.8,11.0,0.0,0.0,1008.9
"2015-08-03 05:03:00",11.8,11.1,0.0,0.0,1008.9
"2015-08-03 05:04:00",11.8,11.1,0.0,0.0,1008.9
"2015-08-03 05:05:00",11.9,11.1,0.0,0.0,1008.9
"2015-08-03 05:06:00",11.9,11.1,0.0,0.0,1008.9
"2015-08-03 05:07:00",11.9,11.1,0.0,0.0,1008.9
"2015-08-03 05:08:00",11.9,11.2,0.0,0.0,1009.0
"2015-08-03 05:09:00",11.9,11.2,0.0,0.0,1009.0
"2015-08-03 05:10:00",11.9,11.2,0.0,0.0,1008.9
"2015-08-03 05:11:00",11.9,11.2,0.0,0.0,1008.9
"2015-08-03 05:12:00",12.0,11.2,0.0,0.0,1008.9
"2015-08-03 05:13:00",12.0,11.2,0.0,0.0,1009.0
"2015-08-03 05:14:00",12.0,11.2,0.0,0.0,1009.0
"2015-08-03 05:15:00",12.0,11.2,0.0,0.0,1009.0
"2015-08-03 05:16:00",12.1,11.3,0.0,0.0,1009.0
"2015-08-03 05:17:00",12.1,11.3,0.0,0.0,1009.0
"2015-08-03 05:18:00",12.1,11.3,0.0,0.0,1009.0
"2015-08-03 05:19:00",12.1,11.3,0.0,0.0,1009.0
"2015-08-03 05:20:00",12.1,11.3,0.0,0.0,1009.0
"2015-08-03 05:21:00",12.1,11.4,0.0,0.0,1009.0
"2015-08-03 05:22:00",12.2,11.4,0.0,0.0,1009.0
"2015-08-03 05:23:00",12.2,11.5,0.0,0.0,1009.1
"2015-08-03 05:24:00",12.2,11.6,0.0,0.0,1009.1
"2015-08-03 05:25:00",12.2,11.6,0.0,0.0,1009.1
"2015-08-03 05:26:00",12.3,11.6,0.0,0.0,1009.2
"2015-08-03 05:27:00",12.3,11.7,0.0,0.0,1009.2
"2015-08-03 05:28:00",12.3,11.7,0.0,0.0,1009.2
"2015-08-03 05:29:00",12.3,11.7,0.0,0.0,1009.2
"2015-08-03 05:30:00",12.3,11.7,0.0,0.0,1009.2
"2015-08-03 05:31:00",12.4,11.8,0.0,0.0,1009.2
"2015-08-03 05:32:00",12.4,11.8,0.0,0.0,1009.1
"2015-08-03 05:33:00",12.5,11.8,0.0,0.0,1009.1
"2015-08-03 05:34:00",12.5,11.9,0.0,0.0,1009.2
"2015-08-03 05:35:00",12.5,11.9,0.0,0.0,1009.2
"2015-08-03 05:36:00",12.6,11.9,0.0,0.0,1009.2
"2015-08-03 05:37:00",12.6,11.9,0.0,0.0,1009.2
"2015-08-03 05:38:00",12.6,12.0,0.0,0.0,1009.2
"2015-08-03 05:39:00",12.6,12.0,0.0,0.0,1009.3
"2015-08-03 05:40:00",12.7,12.1,0.0,0.0,1009.3
"2015-08-03 05:41:00",12.7,12.1,0.0,0.0,1009.3
"2015-08-03 05:42:00",12.8,12.2,0.0,0.0,1009.3
"2015-08-03 05:43:00",12.8,12.2,0.0,0.0,1009.3
"2015-08-03 05:44:00",12.9,12.3,0.0,0.0,1009.3
"2015-08-03 05:45:00",12.9,12.3,0.0,0.0,1009.3
"2015-08-03 05:46:00",13.0,12.3,0.0,0.0,1009.3
"2015-08-03 05:47:00",13.0,12.4,0.0,0.0,1009.3
"2015-08-03 05:48:00",13.1,12.4,0.0,0.0,1009.3
"2015-08-03 05:49:00",13.1,12.7,0.0,0.0,1009.3
"2015-08-03 05:50:00",13.2,12.7,0.0,0.0,1009.3
"2015-08-03 05:51:00",13.2,12.7,0.0,0.0,1009.3
"2015-08-03 05:52:00",13.3,12.6,0.0,0.0,1009.3
"2015-08-03 05:53:00",13.3,12.9,0.0,0.0,1009.3
"2015-08-03 05:54:00",13.4,12.9,0.0,0.0,1009.4
"2015-08-03 05:55:00",13.4,13.0,0.0,0.0,1009.4
"2015-08-03 05:56:00",13.5,13.0,0.0,0.0,1009.4
"2015-08-03 05:57:00",13.5,13.0,0.0,0.0,1009.4
"2015-08-03 05:58:00",13.6,13.1,0.0,0.0,1009.4
"2015-08-03 05:59:00",13.6,13.2,0.0,0.0,1009.4
"2015-08-03 06:00:00",13.7,13.2,0.0,0.0,1009.4
"2015-08-03 06:01:00",13.7,13.3,0.0,0.0,1009.4
"2015-08-03 06:02:00",13.7,13.3,0.0,0.0,1009.4
"2015-08-03 06:03:00",13.7,13.3,0.0,0.0,1009.4
"2015-08-03 06:04:00",13.7,13.3,0.0,0.0,1009.4
"2015-08-03 06:05:00",13.7,13.3,0.0,0.0,1009.4
"2015-08-03 06:06:00",13.7,13.1,0.0,0.0,1009.4
"2015-08-03 06:07:00",13.7,13.1,0.0,0.0,1009.4
"2015-08-03 06:08:00",13.7,13.1,0.0,0.0,1009.4
"2015-08-03 06:09:00",13.7,13.1,0.0,0.0,1009.4
"2015-08-03 06:10:00",13.7,13.3,0.0,0.0,1009.4
"2015-08-03 06:11:00",13.7,13.3,0.0,0.0,1009.4
"2015-08-03 06:12:00",13.7,13.3,0.0,0.0,1009.4
"2015-08-03 06:13:00",13.7,13.3,0.0,0.0,1009.5
"2015-08-03 06:14:00",13.8,13.3,0.0,0.0,1009.5
"2015-08-03 06:15:00",13.8,13.2,0.0,0.0,1009.6
"2015-08-03 06:16:00",13.8,13.3,0.0,0.0,1009.6
"2015-08-03 06:17:00",13.8,13.4,0.0,0.0,1009.6
"2015-08-03 06:18:00",13.8,13.4,0.0,0.0,1009.6
"2015-08-03 06:19:00",13.8,13.4,0.0,0.0,1009.6
"2015-08-03 06:20:00",13.9,13.4,0.0,0.0,1009.6
"2015-08-03 06:21:00",13.9,13.4,0.0,0.0,1009.6
"2015-08-03 06:22:00",13.9,13.5,0.0,0.0,1009.7
"2015-08-03 06:23:00",13.9,13.5,0.0,0.0,1009.7
"2015-08-03 06:24:00",14.0,13.5,0.0,0.0,1009.7
"2015-08-03 06:25:00",14.0,13.5,0.0,0.0,1009.7
"2015-08-03 06:26:00",14.0,13.5,0.0,0.0,1009.7
"2015-08-03 06:27:00",14.1,13.6,0.0,0.0,1009.7
"2015-08-03 06:28:00",14.1,13.6,0.0,0.0,1009.8
"2015-08-03 06:29:00",14.1,13.6,0.0,0.0,1009.8
"2015-08-03 06:30:00",14.1,13.6,0.0,0.0,1009.8
"2015-08-03 06:31:00",14.1,13.7,0.0,0.0,1009.8
"2015-08-03 06:32:00",14.2,13.7,0.0,0.0,1009.8
"2015-08-03 06:33:00",14.2,13.7,0.0,0.0,1009.9
"2015-08-03 06:34:00",14.2,13.8,0.0,0.0,1009.9
"2015-08-03 06:35:00",14.3,13.8,0.0,0.0,1009.9
"2015-08-03 06:36:00",14.3,13.8,0.0,0.0,1009.9
"2015-08-03 06:37:00",14.3,13.9,0.0,0.0,1009.9
"2015-08-03 06:38:00",14.4,13.9,0.0,0.0,1009.9
"2015-08-03 06:39:00",14.4,14.0,0.0,0.0,1009.9
"2015-08-03 06:40:00",14.4,14.0,0.0,0.0,1009.9
"2015-08-03 06:41:00",14.5,14.0,0.0,0.0,1009.9
"2015-08-03 06:42:00",14.5,14.0,0.0,0.0,1010.0
"2015-08-03 06:43:00",14.6,14.1,0.0,0.0,1009.9
"2015-08-03 06:44:00",14.6,14.1,0.0,0.0,1009.9
"2015-08-03 06:45:00",14.6,14.1,0.0,0.0,1009.9
"2015-08-03 06:46:00",14.6,14.3,0.0,0.0,1010.0
"2015-08-03 06:47:00",14.7,14.4,0.0,0.0,1010.0
"2015-08-03 06:48:00",14.7,14.4,0.0,0.0,1010.0
"2015-08-03 06:49:00",14.7,14.4,0.0,0.0,1010.0
"2015-08-03 06:50:00",14.8,14.4,0.0,0.0,1010.0
"2015-08-03 06:51:00",14.8,14.5,0.0,0.0,1010.0
"2015-08-03 06:52:00",14.8,14.5,0.0,0.0,1009.9
"2015-08-03 06:53:00",14.8,14.4,0.0,0.0,1009.9
"2015-08-03 06:54:00",14.8,14.4,0.0,0.0,1009.9
"2015-08-03 06:55:00",14.9,14.4,0.0,0.0,1009.9
"2015-08-03 06:56:00",14.9,14.6,0.0,0.0,1009.9
"2015-08-03 06:57:00",14.9,14.6,0.0,0.0,1009.9
"2015-08-03 06:58:00",15.0,14.6,0.0,0.0,1009.9
"2015-08-03 06:59:00",15.0,14.7,0.0,0.0,1009.9
"2015-08-03 07:00:00",15.0,14.7,0.0,0.0,1009.9
"2015-08-03 07:01:00",15.1,14.8,0.0,0.0,1009.9
"2015-08-03 07:02:00",15.1,14.8,0.0,0.0,1009.9
"2015-08-03 07:03:00",15.2,14.9,0.0,0.0,1009.9
"2015-08-03 07:04:00",15.2,14.9,0.0,0.0,1009.9
"2015-08-03 07:05:00",15.2,14.9,0.0,0.0,1009.9
"2015-08-03 07:06:00",15.2,14.9,0.0,0.0,1009.9
"2015-08-03 07:07:00",15.3,15.0,0.0,0.0,1009.9
"2015-08-03 07:08:00",15.3,15.0,0.0,0.0,1009.9
"2015-08-03 07:09:00",15.3,15.0,0.0,0.0,1010.0
"2015-08-03 07:10:00",15.4,15.1,0.0,0.0,1010.0
"2015-08-03 07:11:00",15.4,15.1,0.0,0.0,1010.0
"2015-08-03 07:12:00",15.4,15.1,0.0,0.0,1010.1
"2015-08-03 07:13:00",15.5,15.2,0.0,0.0,1010.0
"2015-08-03 07:14:00",15.5,15.2,0.0,0.0,1010.1
"2015-08-03 07:15:00",15.5,15.2,0.0,0.0,1010.1
"2015-08-03 07:16:00",15.6,15.2,0.0,0.0,1010.1
"2015-08-03 07:17:00",15.6,15.3,0.0,0.0,1010.1
"2015-08-03 07:18:00",15.6,15.3,0.0,0.0,1010.1
"2015-08-03 07:19:00",15.7,15.3,0.0,0.0,1010.2
"2015-08-03 07:20:00",15.7,15.4,0.0,0.0,1010.2
"2015-08-03 07:21:00",15.7,15.4,0.0,0.0,1010.2
"2015-08-03 07:22:00",15.7,15.4,0.0,0.0,1010.2
"2015-08-03 07:23:00",15.8,15.5,0.0,0.0,1010.2
"2015-08-03 07:24:00",15.8,15.5,0.0,0.0,1010.2
"2015-08-03 07:25:00",15.8,15.5,0.0,0.0,1010.2
"2015-08-03 07:26:00",15.9,15.6,0.0,0.0,1010.2
"2015-08-03 07:27:00",15.9,15.6,0.0,0.0,1010.1
"2015-08-03 07:28:00",16.0,15.6,0.0,0.0,1010.2
"2015-08-03 07:29:00",16.0,15.7,0.0,0.0,1010.1
"2015-08-03 07:30:00",16.0,15.7,0.0,0.0,1010.1
"2015-08-03 07:31:00",16.1,15.7,0.0,0.0,1010.1
"2015-08-03 07:32:00",16.1,15.8,0.0,0.0,1010.1
"2015-08-03 07:33:00",16.1,15.8,0.0,0.0,1010.1
"2015-08-03 07:34:00",16.1,15.8,0.0,0.5,1010.1
"2015-08-03 07:35:00",16.2,15.9,0.0,0.5,1010.1
"2015-08-03 07:36:00",16.2,15.9,0.0,0.5,1010.1
"2015-08-03 07:37:00",16.2,15.9,0.0,0.5,1010.1
"2015-08-03 07:38:00",16.3,16.0,0.0,0.5,1010.1
"2015-08-03 07:39:00",16.3,16.0,0.0,0.5,1010.2
"2015-08-03 07:40:00",16.3,16.0,0.0,0.5,1010.1
"2015-08-03 07:41:00",16.3,16.0,0.0,0.5,1010.1
"2015-08-03 07:42:00",16.4,16.1,0.0,0.5,1010.1
"2015-08-03 07:43:00",16.4,16.1,0.0,0.5,1010.1
"2015-08-03 07:44:00",16.4,16.1,0.0,0.5,1010.1
"2015-08-03 07:45:00",16.4,16.1,0.0,0.5,1010.1
"2015-08-03 07:46:00",16.5,16.2,0.0,0.5,1010.2
"2015-08-03 07:47:00",16.5,16.2,0.0,0.5,1010.2
"2015-08-03 07:48:00",16.5,16.2,0.0,0.5,1010.2
"2015-08-03 07:49:00",16.6,16.2,0.0,0.5,1010.2
"2015-08-03 07:50:00",16.6,16.2,0.0,0.0,1010.2
"2015-08-03 07:51:00",16.6,16.3,0.0,0.5,1010.3
"2015-08-03 07:52:00",16.6,16.3,0.0,0.6,1010.2
"2015-08-03 07:53:00",16.6,16.3,0.0,0.6,1010.1
"2015-08-03 07:54:00",16.7,16.3,0.0,0.7,1010.1
"2015-08-03 07:55:00",16.7,16.3,0.0,0.7,1010.2
"2015-08-03 07:56:00",16.7,16.4,0.0,0.7,1010.2
"2015-08-03 07:57:00",16.7,16.4,0.0,0.7,1010.2
"2015-08-03 07:58:00",16.7,16.4,0.0,0.8,1010.2
"2015-08-03 07:59:00",16.7,16.4,0.0,0.8,1010.2
"2015-08-03 08:00:00",16.8,16.5,0.0,0.8,1010.2
"2015-08-03 08:01:00",16.8,16.5,0.0,0.8,1010.2
"2015-08-03 08:02:00",16.8,16.5,0.0,0.8,1010.2
"2015-08-03 08:03:00",16.8,16.5,0.0,0.7,1010.2
"2015-08-03 08:04:00",16.8,16.5,0.0,0.7,1010.2
"2015-08-03 08:05:00",16.8,16.5,0.0,0.7,1010.3
"2015-08-03 08:06:00",16.9,16.5,0.0,0.7,1010.3
"2015-08-03 08:07:00",16.9,16.6,0.0,0.8,1010.3
"2015-08-03 08:08:00",16.9,16.6,0.0,0.8,1010.4
"2015-08-03 08:09:00",16.9,16.6,0.0,0.5,1010.3
"2015-08-03 08:10:00",16.9,16.6,0.0,0.5,1010.4
"2015-08-03 08:11:00",16.9,16.6,0.0,0.0,1010.4
"2015-08-03 08:12:00",17.0,16.7,0.0,0.0,1010.4
"2015-08-03 08:13:00",17.0,16.7,0.0,0.0,1010.4
"2015-08-03 08:14:00",17.0,16.7,0.0,0.0,1010.4
"2015-08-03 08:15:00",17.1,16.7,0.0,0.0,1010.4
"2015-08-03 08:16:00",17.1,16.7,0.0,0.0,1010.5
"2015-08-03 08:17:00",17.1,16.7,0.0,0.0,1010.5
"2015-08-03 08:18:00",17.1,16.7,0.0,0.5,1010.5
"2015-08-03 08:19:00",17.1,16.8,0.0,0.6,1010.5
"2015-08-03 08:20:00",17.1,16.8,0.0,0.6,1010.5
"2015-08-03 08:21:00",17.1,16.8,0.0,0.6,1010.5
"2015-08-03 08:22:00",17.1,16.8,0.0,0.6,1010.5
"2015-08-03 08:23:00",17.2,16.8,0.0,0.6,1010.5
"2015-08-03 08:24:00",17.2,16.8,0.0,0.6,1010.6
"2015-08-03 08:25:00",17.2,16.8,0.0,0.5,1010.6
"2015-08-03 08:26:00",17.2,16.9,0.0,0.0,1010.5
"2015-08-03 08:27:00",17.2,16.9,0.0,0.0,1010.6
"2015-08-03 08:28:00",17.2,16.7,0.0,0.0,1010.6
"2015-08-03 08:29:00",17.2,16.7,0.0,0.5,1010.6
"2015-08-03 08:30:00",17.3,16.8,0.0,0.0,1010.6